SCP
4 4 6 5 4 3 3 3 4 4 3 3 2 2 2 1 1 1 1 1 1 1 0 0 0 0 0 0 0 0 0 0 0 0 0 0 0 0 0 0 0 0 1
3 4 6 6 5 4 4 3 4 4 3 3 3 2 2 1 1 1 1 1 1 1 1 1 1 0 0 0 0 0 0 0 0 1 1 1 1 1 1 1 1 1 1
3 4 6 6 6 5 4 4 3 3 4 3 3 3 2 2 2 1 1 1 1 1 1 1 1 1 1 1 1 1 1 1 1 1 1 1 1 1 1 1 1 1 2
3 4 6 6 6 5 5 4 4 4 4 4 4 3 3 3 2 2 1 1 1 1 1 1 1 1 1 1 1 1 1 1 1 2 2 2 2 2 2 2 2 2 2
2 4 5 6 6 6 5 5 4 4 4 4 4 3 3 3 3 2 2 1 1 1 1 1 1 1 1 1 2 2 2 2 2 2 2 2 2 2 2 2 2 2 2
2 3 4 5 6 6 6 5 5 5 5 4 4 3 3 4 4 3 2 2 1 1 1 1 1 1 2 2 2 2 2 2 2 2 2 2 2 1 1 1 1 1 1
2 3 4 5 6 6 6 5 5 5 5 5 4 3 3 3 4 4 3 3 2 2 2 2 2 2 2 2 2 3 3 2 2 2 2 2 2 1 1 1 1 1 1
3 3 4 5 6 6 6 5 5 5 5 5 5 4 3 3 3 4 4 4 3 3 2 2 3 3 3 2 2 3 3 2 2 2 2 2 2 2 1 1 1 1 1
3 3 4 5 5 5 6 6 6 6 5 5 5 5 4 4 4 5 4 4 4 3 3 2 3 3 4 3 3 2 2 2 1 1 2 2 2 1 1 1 1 1 1
3 3 4 4 5 6 6 7 7 7 6 6 6 6 5 5 5 5 5 4 4 4 4 3 3 3 3 3 3 2 2 1 1 1 1 1 1 1 1 1 1 1 1
3 3 3 4 6 6 7 7 7 8 7 7 6 6 6 5 5 5 5 5 5 5 5 4 4 4 3 3 3 2 2 1 1 1 1 1 1 1 1 1 1 1 1
3 3 3 4 5 6 7 7 7 8 8 8 7 6 6 5 5 4 4 4 4 5 5 5 4 4 3 3 2 2 1 1 1 1 1 1 1 1 1 1 1 1 1
3 3 3 3 3 4 5 6 7 7 8 8 8 7 6 5 5 4 3 3 3 3 3 3 3 3 3 3 3 2 1 1 0 0 0 1 1 1 1 1 1 1 1
3 3 2 2 2 3 4 5 6 7 8 8 8 7 6 5 4 4 3 2 2 2 2 2 2 2 2 3 2 2 1 1 0 0 0 0 0 0 0 0 0 0 1
2 2 2 2 2 2 3 4 5 6 7 7 7 6 6 4 4 3 2 2 1 1 1 1 1 1 2 2 2 2 1 1 0 0 0 0 0 0 0 0 0 0 0
2 2 2 2 2 2 2 3 3 4 4 4 4 4 4 3 2 2 2 2 1 1 1 1 1 2 2 2 2 2 2 1 1 0 0 0 0 0 0 0 0 0 0
2 2 2 2 2 2 2 2 2 2 2 2 2 2 2 2 2 2 2 2 1 1 1 1 2 2 3 3 2 2 2 1 1 0 0 0 0 0 0 0 0 0 0
2 2 2 2 2 2 2 2 2 2 2 2 2 2 2 2 2 2 2 2 2 2 1 1 2 2 3 3 3 2 2 1 1 1 0 0 0 0 0 0 0 0 0
2 2 2 2 2 2 2 2 2 2 2 2 2 3 3 2 2 2 2 2 2 2 2 2 2 2 3 3 2 2 2 1 1 1 0 0 0 0 0 0 0 0 0
2 2 2 2 2 2 2 2 2 2 2 2 2 3 3 2 2 2 2 2 2 2 2 2 2 2 3 2 2 2 2 2 1 1 1 0 0 0 0 0 0 0 0
2 2 2 2 2 2 1 1 1 1 2 2 2 2 2 2 2 2 2 2 2 2 2 2 2 2 3 2 2 2 1 1 1 1 1 1 0 0 0 0 0 0 0
3 3 3 3 2 2 1 1 1 1 2 2 2 2 2 2 2 2 2 2 2 2 2 2 2 2 2 2 2 2 1 1 1 1 1 0 1 1 1 1 0 0 0
4 4 3 3 2 2 1 1 1 1 2 2 2 2 2 2 2 2 2 2 2 2 2 2 2 2 2 2 2 2 1 1 0 0 0 0 0 1 1 1 1 0 0
5 5 4 3 3 2 1 0 1 1 1 1 1 2 2 2 2 2 2 3 3 3 3 2 2 2 2 2 2 2 1 0 0 0 0 0 0 0 1 1 1 0 0
5 5 5 4 3 2 2 1 1 1 2 1 1 2 2 2 2 2 2 3 3 3 3 3 2 2 2 1 1 1 1 0 0 0 0 0 0 0 1 1 1 0 0
6 5 5 5 4 3 3 1 1 1 2 2 2 2 2 2 2 1 2 2 3 3 3 2 2 2 1 1 1 1 1 1 0 0 0 1 1 1 0 0 0 0 0
Wind_Speed
2 3 2 2 3 3 3 2 1 2 1 1 1 1 1 2 4 6 6 11 11 10 10 10 10 10 9 9 8 8 8 7 7 7 6 6 6 6 6 5 5 5 4
2 2 2 1 1 2 2 2 2 2 1 0 1 1 1 2 3 5 7 8 10 10 10 10 10 10 10 10 9 9 9 8 8 7 7 6 6 6 6 6 6 5 5
2 2 1 1 1 1 1 1 1 1 2 2 2 2 2 2 3 3 6 6 7 10 11 11 11 11 11 11 10 10 9 9 9 8 8 7 7 7 6 6 6 6 6
3 2 2 2 2 2 2 2 2 2 1 1 1 1 1 2 3 4 4 6 6 7 9 12 12 12 12 12 11 11 11 10 10 9 9 9 8 8 8 7 7 7 7
3 2 1 1 2 2 2 2 2 1 1 1 2 2 2 2 3 5 4 5 5 6 7 10 13 13 13 13 13 12 12 11 10 10 10 10 10 9 9 8 8 8 8
3 2 2 2 2 1 1 1 1 1 1 2 3 2 2 3 3 3 4 4 5 6 7 8 8 9 14 13 13 13 12 12 12 11 11 11 11 10 9 9 9 9 9
3 2 1 2 2 1 2 2 1 2 2 2 1 1 2 3 4 3 3 3 4 5 5 7 6 5 6 12 12 12 12 12 12 11 12 11 11 10 10 10 10 9 9
3 4 3 2 2 1 1 1 1 1 2 2 1 1 1 1 2 4 3 3 3 3 4 6 5 5 4 4 6 10 10 11 11 11 10 11 10 10 10 10 10 10 10
3 2 3 3 2 2 2 2 2 3 3 2 1 1 1 1 1 1 2 1 1 1 1 2 4 5 5 4 4 8 10 9 9 9 9 8 8 9 10 10 10 10 9
3 3 3 3 2 2 2 3 3 2 2 2 1 2 2 1 1 1 1 0 1 1 1 1 1 2 3 3 4 5 8 8 8 7 7 6 6 7 8 9 8 8 8
3 3 3 3 2 2 3 3 1 2 2 2 2 2 2 2 2 2 2 1 0 0 1 1 1 2 2 3 3 4 6 6 5 4 3 3 3 3 4 4 5 5 5
2 3 3 3 3 3 3 2 2 2 2 2 2 2 2 2 2 2 2 2 2 1 1 1 1 2 2 2 3 6 7 6 5 5 4 4 4 4 3 2 2 2 2
1 1 1 1 2 2 2 2 2 2 2 2 2 2 2 2 2 2 2 2 2 1 1 1 1 2 2 3 4 7 7 7 7 6 6 6 6 5 4 4 3 2 1
1 0 1 1 2 2 3 2 1 2 2 2 3 2 2 2 2 2 2 2 2 1 1 1 1 2 2 3 5 7 6 9 8 8 7 7 7 7 6 6 6 5 5
0 0 0 1 2 1 1 1 1 2 1 1 1 2 2 2 2 2 1 1 2 2 1 1 1 2 2 3 5 5 5 9 9 9 8 8 8 7 7 7 6 6 5
2 1 1 1 0 0 1 1 1 0 0 0 1 1 1 2 1 1 1 1 1 2 2 1 1 2 3 4 6 5 6 10 9 9 8 8 8 8 7 7 6 6 6
1 1 1 1 1 1 1 0 0 0 0 0 1 1 1 1 2 1 1 1 0 1 2 1 1 2 3 4 5 5 5 5 5 9 9 8 8 8 8 7 6 6 6
0 0 1 1 0 1 1 0 0 0 0 1 1 1 2 1 1 2 1 1 0 1 2 2 2 2 3 4 5 4 4 5 4 8 9 8 8 8 8 7 7 7 6
0 0 1 0 0 1 1 1 1 1 1 1 1 1 1 1 1 1 1 1 1 0 2 3 2 2 2 3 4 3 4 3 4 6 8 8 8 8 8 7 7 7 6
0 1 1 1 1 1 2 2 1 1 1 1 1 1 2 2 2 2 1 1 1 0 1 2 3 3 2 2 3 3 3 2 3 4 4 6 7 7 7 7 6 6 5
1 2 2 2 2 2 3 3 1 1 1 1 1 2 3 4 4 3 2 2 2 1 1 2 3 2 2 3 3 3 3 3 3 4 4 4 4 3 3 4 5 5 4
2 2 2 3 3 4 6 6 4 2 1 1 1 1 3 3 4 4 5 5 3 1 1 1 2 2 2 2 2 2 2 3 2 2 3 3 4 3 3 3 5 6 5
2 2 2 2 3 4 6 6 5 2 2 2 2 2 2 3 3 2 2 3 4 4 2 1 2 1 2 2 2 3 2 2 2 2 3 2 2 3 3 4 8 7 6
2 2 1 2 3 4 6 6 5 1 2 3 3 3 3 4 5 4 3 3 4 4 3 1 1 1 2 1 1 2 3 2 1 1 2 2 2 2 3 3 7 8 7
2 2 2 3 3 4 5 5 4 1 2 3 4 5 4 4 7 6 2 2 2 2 4 5 4 4 3 3 2 1 2 2 2 2 1 1 2 2 2 3 5 9 8
1 2 3 3 3 3 3 4 3 0 2 3 3 5 7 6 7 7 3 2 2 2 2 3 2 2 2 2 2 2 1 1 1 1 1 1 1 2 1 2 3 5 5
Wind_Direction
135 135 131 153 182 165 163 179 169 137 138 175 175 143 93 99 115 127 137 156 156 161 165 169 172 174 176 177 177 178 180 182 180 178 178 180 181 181 182 186 186 185 183
115 122 149 172 184 150 139 153 155 159 179 192 160 149 149 127 121 130 144 159 168 171 175 179 182 184 185 187 188 189 191 192 191 190 191 192 193 196 200 201 204 201 200
147 160 167 192 166 125 135 169 171 184 192 184 183 186 175 159 154 157 153 163 172 182 185 187 188 189 193 194 195 197 199 200 199 200 200 202 203 207 211 211 213 211 209
173 186 187 183 167 179 189 184 217 200 198 186 185 201 179 172 175 181 177 171 170 177 190 194 194 195 198 201 203 204 205 207 206 206 207 209 210 213 216 219 221 221 219
176 191 207 161 193 196 202 217 173 200 200 198 206 200 201 198 188 196 191 184 177 171 176 191 199 201 204 206 208 209 209 209 209 212 216 217 219 218 218 220 223 222 223
184 198 205 194 225 204 212 221 162 190 236 231 238 206 207 199 199 195 200 194 182 181 181 178 191 206 211 211 211 213 214 215 213 215 219 221 221 220 219 220 221 223 225
185 195 247 179 223 220 207 202 196 207 232 228 226 248 246 218 195 190 203 200 187 185 180 169 179 186 198 211 215 216 218 219 219 217 217 219 222 222 220 222 222 225 225
197 194 203 234 225 215 223 242 228 240 254 230 197 198 263 283 252 220 189 199 196 185 186 179 179 182 183 179 200 210 217 221 222 221 220 221 223 221 223 225 226 226 227
207 220 193 224 231 223 204 223 221 226 247 255 203 183 190 228 265 284 218 187 161 159 173 174 172 173 176 163 175 205 212 218 222 223 222 221 221 222 226 229 227 226 223
211 218 216 216 236 247 206 228 217 226 230 253 250 236 226 214 198 282 317 222 182 176 178 183 172 151 152 146 136 153 188 202 213 222 227 225 225 223 223 226 227 226 221
215 222 219 213 220 239 236 244 224 228 220 230 244 245 242 222 216 208 245 262 266 200 171 139 145 106 118 128 130 129 151 165 172 180 187 190 189 197 204 210 222 225 222
222 230 223 210 211 231 238 238 237 229 232 238 257 263 244 218 219 211 216 213 222 224 106 83 105 100 100 105 114 113 127 133 134 131 128 123 118 117 123 136 171 199 210
236 226 219 209 220 224 225 228 232 230 226 235 240 254 261 245 242 237 219 228 224 202 143 119 126 120 113 104 101 109 116 119 118 114 109 103 98 92 87 86 88 90 104
251 236 181 201 230 224 229 207 217 234 221 230 239 245 271 270 260 242 237 223 231 230 121 144 83 104 105 104 108 114 109 112 111 108 105 101 95 88 82 77 72 66 63
264 331 156 205 234 220 224 204 221 247 213 228 257 261 268 274 268 258 243 216 206 217 217 187 114 97 109 106 115 116 109 112 112 109 107 105 101 95 87 80 74 72 69
9 8 336 300 297 299 186 194 236 216 145 178 275 311 306 307 308 303 290 246 214 203 199 165 137 131 112 113 115 109 103 113 113 111 107 103 98 93 88 82 79 75 71
20 6 352 340 5 34 49 119 239 127 222 35 307 306 311 337 335 319 314 302 278 171 168 143 110 105 109 108 110 111 111 110 111 115 112 108 102 97 90 84 80 78 77
18 72 34 355 346 55 64 46 325 41 56 52 19 13 354 348 340 339 336 304 216 185 156 156 150 133 115 118 120 125 124 120 114 120 120 115 110 102 95 89 83 77 75
59 107 109 90 16 43 42 31 30 46 60 68 55 27 6 7 342 337 330 324 299 221 146 151 161 150 129 135 128 131 124 122 123 125 124 121 117 110 104 97 91 85 81
115 76 64 54 46 45 40 31 62 91 75 60 63 55 31 21 352 319 309 322 304 131 137 138 141 143 142 146 146 150 146 152 151 142 127 131 130 125 117 111 106 101 96
76 68 57 46 40 44 38 32 15 86 77 75 81 83 70 67 54 31 23 9 6 53 114 134 145 145 153 165 179 179 163 159 153 148 148 152 151 148 140 133 126 122 118
70 74 67 63 52 47 39 39 27 42 41 38 61 85 109 89 78 79 75 62 54 69 97 123 138 155 170 173 169 163 159 159 170 164 157 165 160 159 159 156 155 151 146
94 80 74 79 76 56 43 38 31 28 52 52 45 29 42 58 63 73 95 91 68 58 77 141 142 174 172 169 173 176 171 166 160 163 153 171 162 160 158 159 166 169 168
114 101 98 96 87 61 50 36 19 31 71 66 57 49 50 42 25 26 47 70 75 54 48 92 106 114 118 131 187 185 168 154 155 150 147 181 171 166 151 153 177 181 181
125 111 99 99 90 73 46 34 11 36 83 73 62 51 45 52 29 25 37 69 86 97 84 90 92 102 101 98 114 126 148 159 175 172 151 179 173 160 161 171 187 192 193
116 106 98 93 95 92 65 41 13 35 106 104 94 80 59 52 38 25 23 40 59 40 74 110 115 141 148 140 144 159 177 185 150 154 144 155 167 157 179 186 178 187 206